Visibility
15.0 15.0 15.0 15.0 15.0 15.0 15.0 15.0 15.0 15.0 15.0 12.2 15.0 15.0 15.0 15.0 15.0 15.0 15.0 15.0 15.0 15.0 15.0 15.0 15.0 15.0 15.0 15.0 15.0 15.0 15.0 15.0 15.0 15.0 15.0 15.0 15.0 15.0 15.0 3.9 1.0 5.4 7.7 13.5
15.0 15.0 15.0 15.0 15.0 15.0 15.0 15.0 11.4 15.0 14.5 15.0 15.0 15.0 15.0 15.0 15.0 15.0 15.0 15.0 15.0 15.0 15.0 15.0 15.0 15.0 15.0 15.0 15.0 15.0 15.0 15.0 15.0 15.0 15.0 15.0 15.0 15.0 15.0 15.0 12.4 6.6 2.5 1.9
15.0 15.0 15.0 15.0 15.0 15.0 15.0 7.9 0.2 7.8 14.7 15.0 15.0 15.0 15.0 15.0 15.0 15.0 15.0 15.0 15.0 15.0 15.0 15.0 15.0 15.0 15.0 15.0 15.0 15.0 15.0 15.0 15.0 15.0 15.0 15.0 12.7 15.0 15.0 15.0 1.9 3.9 5.1 8.8
15.0 15.0 15.0 15.0 15.0 15.0 15.0 13.5 14.6 12.6 0.2 2.7 15.0 15.0 15.0 15.0 15.0 15.0 15.0 15.0 15.0 15.0 15.0 15.0 15.0 15.0 15.0 15.0 15.0 15.0 15.0 15.0 15.0 15.0 15.0 15.0 15.0 15.0 15.0 1.4 5.8 1.0 4.4 12.2
15.0 15.0 15.0 15.0 15.0 15.0 13.5 0.1 12.2 15.0 15.0 15.0 15.0 15.0 15.0 15.0 15.0 15.0 15.0 15.0 15.0 15.0 15.0 15.0 15.0 15.0 14.4 8.5 15.0 15.0 11.5 14.9 15.0 15.0 15.0 15.0 15.0 15.0 15.0 15.0 15.0 2.3 9.9 15.0
15.0 15.0 15.0 15.0 15.0 11.7 15.0 13.5 15.0 15.0 15.0 15.0 11.1 13.5 15.0 15.0 15.0 15.0 15.0 15.0 15.0 15.0 15.0 15.0 15.0 15.0 15.0 15.0 15.0 15.0 7.0 1.4 9.5 6.1 12.1 7.3 12.7 11.4 15.0 15.0 15.0 15.0 15.0 15.0
15.0 15.0 15.0 15.0 15.0 15.0 14.3 15.0 15.0 15.0 9.0 14.8 14.7 15.0 15.0 15.0 15.0 15.0 15.0 15.0 11.8 15.0 15.0 15.0 15.0 15.0 13.6 15.0 12.7 15.0 6.4 1.8 1.7 5.2 4.2 0.2 15.0 15.0 15.0 15.0 15.0 15.0 15.0 14.7
15.0 15.0 15.0 15.0 15.0 15.0 8.7 15.0 15.0 15.0 15.0 14.2 11.4 10.9 7.3 8.3 7.7 8.8 15.0 15.0 15.0 15.0 1.8 0.0 0.8 14.7 5.6 9.4 15.0 15.0 15.0 13.1 1.0 3.1 9.3 15.0 15.0 15.0 15.0 15.0 15.0 15.0 15.0 15.0
15.0 15.0 15.0 15.0 15.0 15.0 14.8 14.8 14.3 14.7 10.6 3.9 15.0 15.0 15.0 4.7 12.1 15.0 15.0 15.0 15.0 13.3 0.0 0.0 0.6 8.8 14.5 14.5 6.5 15.0 15.0 14.7 3.1 4.1 1.1 9.1 15.0 15.0 15.0 15.0 15.0 15.0 15.0 15.0
15.0 15.0 15.0 15.0 15.0 15.0 14.5 14.0 8.2 11.5 0.0 5.3 15.0 15.0 15.0 15.0 15.0 8.0 10.0 11.6 6.0 2.2 0.0 0.5 1.8 3.0 13.3 2.2 6.4 5.0 4.5 1.2 0.3 1.2 0.9 3.2 15.0 15.0 15.0 11.3 6.0 15.0 15.0 15.0
14.8 15.0 15.0 15.0 15.0 14.9 11.5 14.0 13.6 5.0 0.0 15.0 15.0 15.0 15.0 8.6 10.3 7.1 11.9 0.1 0.1 0.0 0.0 2.1 1.6 7.3 15.0 13.8 11.0 11.1 14.8 3.6 1.3 1.8 0.2 0.2 15.0 15.0 15.0 12.6 15.0 15.0 15.0 15.0
15.0 15.0 15.0 15.0 15.0 15.0 15.0 11.4 15.0 11.3 4.2 14.7 15.0 15.0 15.0 15.0 15.0 15.0 1.7 0.1 3.9 6.5 6.7 14.7 4.1 8.6 10.5 9.9 15.0 12.1 3.3 11.8 3.7 9.2 1.3 15.0 15.0 15.0 15.0 15.0 15.0 15.0 15.0 15.0
15.0 15.0 15.0 14.3 15.0 14.6 15.0 15.0 13.4 7.8 2.3 0.9 2.0 15.0 15.0 15.0 15.0 15.0 0.2 0.5 14.8 4.9 13.6 0.9 7.9 14.7 15.0 15.0 15.0 9.2 15.0 15.0 8.7 4.1 15.0 15.0 15.0 15.0 15.0 15.0 15.0 15.0 15.0 15.0
15.0 15.0 13.4 10.6 15.0 11.1 8.2 13.7 12.0 15.0 0.1 0.0 12.0 15.0 15.0 15.0 15.0 15.0 15.0 15.0 15.0 13.8 12.7 5.7 0.9 2.8 15.0 14.1 9.8 3.5 6.2 15.0 15.0 15.0 15.0 15.0 15.0 15.0 15.0 15.0 15.0 15.0 15.0 15.0
15.0 15.0 15.0 15.0 15.0 11.6 9.4 10.4 12.7 15.0 7.7 0.0 0.0 15.0 15.0 15.0 15.0 15.0 15.0 14.7 9.2 4.1 0.0 0.0 0.0 5.9 7.0 8.5 14.4 12.3 15.0 15.0 15.0 14.0 12.4 15.0 15.0 15.0 15.0 15.0 15.0 15.0 15.0 15.0
15.0 13.6 15.0 14.2 12.6 14.6 15.0 0.0 6.1 15.0 11.4 0.0 0.3 15.0 15.0 15.0 15.0 14.5 8.6 14.1 7.1 2.0 0.0 0.0 0.0 13.6 0.6 0.0 4.2 15.0 15.0 15.0 15.0 15.0 15.0 15.0 15.0 15.0 15.0 15.0 15.0 15.0 15.0 15.0
15.0 15.0 15.0 14.7 13.6 15.0 0.1 0.4 1.7 15.0 15.0 0.0 0.0 1.4 0.6 15.0 10.3 13.3 7.6 6.9 6.5 0.3 0.0 0.0 0.1 0.1 0.1 0.0 0.5 15.0 15.0 15.0 15.0 15.0 15.0 15.0 15.0 15.0 15.0 15.0 15.0 15.0 15.0 15.0
15.0 10.3 13.6 14.5 14.9 8.0 6.6 15.0 15.0 8.6 1.0 0.1 0.0 0.2 0.0 6.7 0.0 0.0 11.3 0.2 4.2 0.1 0.1 7.9 2.9 15.0 6.3 0.6 12.4 15.0 15.0 15.0 15.0 15.0 15.0 15.0 15.0 15.0 15.0 15.0 15.0 15.0 15.0 15.0
15.0 15.0 8.0 2.1 0.6 0.1 0.2 15.0 15.0 15.0 0.1 0.0 0.0 1.9 0.0 0.3 0.0 11.1 15.0 11.6 0.2 13.2 7.1 15.0 15.0 1.7 11.6 9.4 15.0 15.0 15.0 15.0 15.0 15.0 15.0 15.0 15.0 15.0 15.0 15.0 15.0 15.0 15.0 15.0
15.0 7.2 0.0 0.0 0.2 14.8 13.5 0.3 0.0 0.0 0.0 0.1 9.5 15.0 0.0 0.1 0.1 0.2 15.0 15.0 15.0 15.0 15.0 15.0 15.0 15.0 15.0 15.0 15.0 15.0 15.0 15.0 15.0 15.0 15.0 15.0 15.0 15.0 15.0 15.0 15.0 15.0 15.0 15.0
13.8 0.0 0.0 0.4 6.9 0.2 0.0 0.0 0.0 0.0 0.0 0.2 5.1 0.0 0.0 0.1 0.3 15.0 15.0 15.0 15.0 15.0 15.0 15.0 15.0 15.0 15.0 15.0 15.0 15.0 15.0 15.0 15.0 15.0 15.0 15.0 15.0 15.0 15.0 15.0 15.0 15.0 15.0 15.0
15.0 3.0 3.7 1.9 0.0 0.0 0.1 0.2 15.0 6.1 11.5 14.8 0.0 0.0 0.0 0.0 15.0 15.0 15.0 15.0 15.0 15.0 15.0 15.0 15.0 14.9 15.0 15.0 15.0 15.0 15.0 15.0 15.0 15.0 15.0 15.0 15.0 15.0 15.0 15.0 15.0 15.0 15.0 15.0
6.9 0.0 0.0 0.0 0.2 0.1 7.8 9.0 14.8 0.8 4.7 0.2 0.0 0.0 0.0 9.6 15.0 15.0 15.0 15.0 15.0 15.0 15.0 15.0 14.7 15.0 15.0 15.0 15.0 15.0 15.0 15.0 15.0 15.0 15.0 15.0 15.0 15.0 15.0 15.0 15.0 15.0 15.0 15.0
0.1 0.1 0.1 0.1 5.2 15.0 14.5 14.4 10.1 0.3 15.0 15.0 15.0 15.0 15.0 15.0 15.0 15.0 15.0 15.0 15.0 14.8 15.0 14.9 13.5 15.0 15.0 15.0 15.0 15.0 15.0 15.0 15.0 15.0 15.0 15.0 15.0 15.0 15.0 15.0 15.0 15.0 15.0 15.0
6.2 13.4 0.2 6.5 8.8 8.3 9.3 14.5 0.3 0.4 15.0 15.0 15.0 15.0 15.0 15.0 6.1 15.0 15.0 8.1 13.7 15.0 12.6 9.0 14.8 15.0 15.0 15.0 15.0 15.0 15.0 15.0 15.0 15.0 15.0 15.0 15.0 15.0 15.0 15.0 15.0 15.0 15.0 15.0
15.0 15.0 3.1 15.0 0.6 0.4 0.2 0.0 0.0 15.0 15.0 15.0 15.0 15.0 15.0 3.2 15.0 15.0 15.0 15.0 15.0 5.7 15.0 15.0 15.0 6.8 9.3 8.8 15.0 15.0 15.0 11.4 10.4 15.0 15.0 15.0 15.0 15.0 15.0 15.0 15.0 15.0 15.0 15.0
14.3 2.1 13.2 4.1 0.4 0.2 0.1 0.0 0.1 15.0 15.0 0.2 15.0 15.0 11.0 15.0 14.7 15.0 7.5 2.4 2.0 5.5 15.0 15.0 12.6 1.0 0.2 0.2 15.0 15.0 15.0 15.0 15.0 15.0 15.0 15.0 15.0 15.0 15.0 15.0 15.0 15.0 15.0 15.0